Ostrava, Czech Republic

5:50 AM CET on December 08, 2016 (GMT +0100)
Ostrava

Weather History for LKMT - October, 2011

Change the Weather History Date:

Tuesday, October 18, 2011

  Actual Average Record
Temperature  
Mean Temperature 40 °F -  
Max Temperature 52 °F 49 °F - ()
Min Temperature 28 °F 36 °F - ()
Degree Days  
Heating Degree Days 25    
Moisture  
Dew Point 32 °F    
Average Humidity 69    
Maximum Humidity 93    
Minimum Humidity 50    
Precipitation  
Precipitation 0.00 in 0.06 in - ()
Sea Level Pressure  
Sea Level Pressure 30.07 in    
Wind  
Wind Speed 10 mph ()    
Max Wind Speed 23 mph    
Max Gust Speed -    
Visibility 7.3 miles    
Events      
T = Trace of Precipitation, MM = Missing Value Source: Averaged Metar Reports

Daily Weather History Graph

Daily Weather History Graph

Search for Another Location

Airport or City:

Trip Planner

Search our weather history database for the weather conditions in past years. The results will help you decide how hot, cold, wet, or windy it might be!

Date:

Astronomy

Oct. 18, 2011 Rise Set
Actual Time 7:12 AM CEST 5:51 PM CEST
Civil Twilight 6:40 AM CEST 6:24 PM CEST
Nautical Twilight 6:03 AM CEST 7:01 PM CEST
Astronomical Twilight 5:25 AM CEST 7:38 PM CEST
Moon 9:53 PM CEST (10/18) 1:13 PM CEST (10/18)
Length of Visible Light 11h 43m
Length of Day
10h 38m
Waning Gibbous, 67% of the Moon is Illuminated
Oct 18
Waning Gibbous
Oct 20
Last Quarter
Oct 26
New
Nov 2
First Quarter
Nov 10
Full

Hourly Weather History & Observations

Time (CEST) Temp. Windchill Dew Point Humidity Pressure Visibility Wind Dir Wind Speed Gust Speed Precip Events Conditions
12:00 AM 32.0 °F 26.4 °F 28.4 °F 87% 30.21 in - SW 5.8 mph - N/A   Clear
12:30 AM 32.0 °F 25.6 °F 28.4 °F 87% 30.21 in - SW 6.9 mph - N/A   Clear
1:00 AM 32.0 °F 24.8 °F 28.4 °F 87% 30.18 in - SW 8.1 mph - N/A   Clear
1:30 AM 32.0 °F 25.6 °F 28.4 °F 87% 30.18 in - SW 6.9 mph - N/A   Clear
2:00 AM 31 °F - 28 °F 82% 30.24 in 9 mi WSW 6.7 mph - -  
2:00 AM 32.0 °F 26.4 °F 28.4 °F 87% 30.18 in - WSW 5.8 mph - N/A   Clear
2:30 AM 32.0 °F 25.6 °F 28.4 °F 87% 30.18 in - West 6.9 mph - N/A   Clear
3:00 AM 32.0 °F 24.2 °F 28.4 °F 87% 30.15 in - WSW 9.2 mph - N/A   Clear
3:30 AM 30.2 °F 23.4 °F 26.6 °F 86% 30.15 in - SW 6.9 mph - N/A   Clear
4:00 AM 30.2 °F 23.4 °F 26.6 °F 86% 30.15 in - WSW 6.9 mph - N/A   Clear
4:30 AM 28.4 °F 20.4 °F 26.6 °F 93% 30.15 in - WSW 8.1 mph - N/A   Clear
5:00 AM 30.2 °F 22.6 °F 28.4 °F 93% 30.12 in - WSW 8.1 mph - N/A   Clear
5:30 AM 37.4 °F 30.3 °F 28.4 °F 70% 30.12 in - SW 10.4 mph - N/A   Clear
6:00 AM 37.4 °F 30.3 °F 28.4 °F 70% 30.12 in - SW 10.4 mph - N/A   Clear
6:30 AM 33.8 °F 27.7 °F 28.4 °F 81% 30.12 in - WSW 6.9 mph - N/A   Clear
7:00 AM 32.0 °F 24.8 °F 28.4 °F 87% 30.12 in - WSW 8.1 mph - N/A   Clear
7:30 AM 32.0 °F 24.8 °F 28.4 °F 87% 30.12 in - WSW 8.1 mph - N/A   Clear
8:00 AM 33 °F - 29 °F 79% 30.18 in 16 mi WSW 8.9 mph - -  
8:00 AM 32.0 °F 24.8 °F 28.4 °F 87% 30.12 in - WSW 8.1 mph - N/A   Clear
8:30 AM 37.4 °F 30.8 °F 30.2 °F 75% 30.12 in - SW 9.2 mph - N/A   Clear
9:00 AM 42.8 °F 37.0 °F 32.0 °F 66% 30.12 in 6.2 mi SW 10.4 mph - N/A   Scattered Clouds
9:30 AM 42.8 °F 37.0 °F 33.8 °F 70% 30.12 in 6.2 mi WSW 10.4 mph - N/A   Mostly Cloudy
10:00 AM 44.6 °F 38.4 °F 32.0 °F 61% 30.09 in 6.2 mi SW 12.7 mph - N/A   Mostly Cloudy
10:30 AM 46.4 °F 39.5 °F 32.0 °F 57% 30.09 in 6.2 mi SW 17.3 mph - N/A   Mostly Cloudy
11:00 AM 48.2 °F - 33.8 °F 58% 30.09 in 6.2 mi SSW 19.6 mph - N/A   Overcast
11:30 AM 46.4 °F 39.8 °F 35.6 °F 66% 30.09 in 6.2 mi SW 16.1 mph - N/A   Overcast
12:00 PM 48.2 °F - 35.6 °F 62% 30.09 in 6.2 mi SW 17.3 mph - N/A   Overcast
12:30 PM 48.2 °F - 35.6 °F 62% 30.06 in 6.2 mi SW 21.9 mph - N/A   Mostly Cloudy
1:00 PM 50.0 °F - 37.4 °F 62% 30.06 in 6.2 mi SSW 23.0 mph - N/A   Scattered Clouds
1:30 PM 51.8 °F - 37.4 °F 58% 30.06 in 6.2 mi SSW 23.0 mph - N/A   Mostly Cloudy
2:00 PM 51.8 °F - 35.6 °F 54% 30.06 in 6.2 mi SSW 21.9 mph - N/A   Partly Cloudy
2:30 PM 51.8 °F - 35.6 °F 54% 30.04 in - SSW 18.4 mph - N/A   Clear
3:00 PM 51.8 °F - 35.6 °F 54% 30.01 in - SSW 20.7 mph - N/A   Clear
3:30 PM 51.8 °F - 37.4 °F 58% 30.01 in - SSW 23.0 mph - N/A   Clear
4:00 PM 51.8 °F - 35.6 °F 54% 30.01 in - SW 19.6 mph - N/A   Clear
4:30 PM 51.8 °F - 35.6 °F 54% 30.01 in - SSW 18.4 mph - N/A   Clear
5:00 PM 51.8 °F - 35.6 °F 54% 30.01 in - SSW 19.6 mph - N/A   Clear
5:30 PM 50.0 °F - 37.4 °F 62% 29.98 in - SSW 17.3 mph - N/A   Clear
6:00 PM 50.0 °F - 37.4 °F 62% 29.98 in - SSW 17.3 mph - N/A   Clear
6:30 PM 48.2 °F - 37.4 °F 66% 29.98 in - SSW 16.1 mph - N/A   Clear
7:00 PM 48.2 °F - 35.6 °F 62% 29.98 in - SW 15.0 mph - N/A   Clear
7:30 PM 48.2 °F - 35.6 °F 62% 29.98 in - SW 15.0 mph - N/A   Clear
8:00 PM 48 °F - 35 °F 50% 29.98 in 9 mi SW 15.7 mph - -   Scattered Clouds
8:00 PM 48.2 °F - 35.6 °F 62% 29.98 in - SW 13.8 mph - N/A   Clear
8:30 PM 48.2 °F - 33.8 °F 58% 29.98 in - SW 16.1 mph - N/A   Clear
9:00 PM 46.4 °F 40.4 °F 33.8 °F 62% 29.98 in - SW 13.8 mph - N/A   Clear
9:30 PM 46.4 °F 41.1 °F 32.0 °F 57% 29.95 in - SW 11.5 mph - N/A   Clear
10:00 PM 46.4 °F 40.7 °F 32.0 °F 57% 29.95 in - SW 12.7 mph - N/A   Clear
10:30 PM 46.4 °F 40.4 °F 32.0 °F 57% 29.95 in - SW 13.8 mph - N/A   Clear
11:00 PM 46.4 °F 40.4 °F 32.0 °F 57% 29.95 in - WSW 13.8 mph - N/A   Clear
11:30 PM 44.6 °F 38.8 °F 32.0 °F 61% 29.95 in - WSW 11.5 mph - N/A   Clear